YAOGAN-33 02

Satellite information

Favourite Embed

Satellite Type and Status

PAYLOADIN ORBIT

Key statistics

Satellite YAOGAN-33 02 at a glance.

Uptime

1097

Days in orbit

Revolutions

≈ 14.6

Per day

Orbit

SSO

Sun Synchronous Orbit

Inclination

98.2

Latest

Satellite identification and parameters

Extended collection of information and parameters for YAOGAN-33 02.

Object identification

Identified? True

Debris? False

Object name: YAOGAN-33 02

International designator: 2022-106A

Object number (NORAD): 53698

Object ID (CCSDS): 53698

Country: PEOPLES REPUBLIC OF CHINA (PRC)

Current information (Y/N): Y

RCS size: LARGE

Orbital parameters

Period: 98.696 minutes

Inclination: 98.1853 deg

SMA: 7074.469 km

Apoapsis: 698.999 km

Periapsis: 693.669 km

RAAN: 253.1301 deg

Eccentricy: 0.00037672

Argument of periapsis: 33.5666 deg

Mean anomaly: 326.5772 deg

Mean motion: 14.59022494 rev/day

Mean motion (dot): 0.00000428 rev/day2

B* drag term: 0.0001009515 1/REarth

Two-line elements (TLE)

Creation date: Sept. 3, 2025, 2:21 a.m.

Reference frame: TEME

Reference center: EARTH

Epoch: Sept. 2, 2025, 11:50 p.m. UTC

TLE line 0: 0 YAOGAN-33 02

TLE line 1: 1 53698U 22106A 25245.99313209 .00000428 00000-0 10095-3 0 9998

TLE line 2: 2 53698 98.1853 253.1301 0003767 33.5666 326.5772 14.59022494159854

Live tracking on map

Real-time ground track for satellite YAOGAN-33 02.

In-orbit conjunctions

There are no conjunctions computed for YAOGAN-33 02, at the moment. Check back to stay up to date, as we update our databases every day.

Go to all conjunctions

Associated space launch

The Yaogan 33-02 is a Chinese military “remote sensing” satellite of unknown purpose.

YAOGAN-33 02 was lifted into orbit during the mission ‘Long March 4C | Yaogan 33-02’, on board a Long March 4C space rocket.

The launch took place on Sept. 2, 2022, 11:44 p.m. from Launch Area 4 (SLS-2 / 603).

For more information about the launch, click the button.

Launch to space Long March 4C | Yaogan 33-02
Long March 4C | Yaogan 33-02

Agency: N/A

Status: Launch Successful

Launch date: Sept. 2, 2022, 11:44 p.m. UTC

Rocket: Long March 4C

Launch pad: Launch Area 4 (SLS-2 / 603)

Location: Jiuquan Satellite Launch Center, People's Republic of China

...

Latest news about this satellite

There are no fresh news available about this satellite. Check back as we update our databases every day.


Newsletter sign-up

Weekly statistics, charts and insights to help you stay on top of the space industry.